Istanbul, Turkey

3:50 PM +03 on February 27, 2017 (GMT +0300)
Ataturk

Weather History for LTBA - December, 2013

Change the Weather History Date:

Monday, December 16, 2013

  Actual Average Record
Temperature  
Mean Temperature 42 °F -  
Max Temperature 47 °F 47 °F 62 °F (1999)
Min Temperature 37 °F 39 °F 33 °F (2001)
Degree Days  
Heating Degree Days 23    
Moisture  
Dew Point 40 °F    
Average Humidity 90    
Maximum Humidity 100    
Minimum Humidity 78    
Precipitation  
Precipitation 0.08 in - - ()
Sea Level Pressure  
Sea Level Pressure 30.47 in    
Wind  
Wind Speed 8 mph ()    
Max Wind Speed 22 mph    
Max Gust Speed -    
Visibility 2.5 miles    
Events Rain    
Averages and records for this station are not official NWS values.
T = Trace of Precipitation, MM = Missing Value Source: Averaged Metar Reports

Daily Weather History Graph

Daily Weather History Graph

Search for Another Location

Airport or City:

Trip Planner

Search our weather history database for the weather conditions in past years. The results will help you decide how hot, cold, wet, or windy it might be!

Date:

Astronomy

Dec. 16, 2013 Rise Set
Actual Time 7:23 AM EET 4:37 PM EET
Civil Twilight 6:51 AM EET 5:08 PM EET
Nautical Twilight 6:17 AM EET 5:43 PM EET
Astronomical Twilight 5:43 AM EET 6:16 PM EET
Moon 4:12 PM EET (12/16) 6:14 AM EET (12/16)
Length of Visible Light 10h 16m
Length of Day
9h 14m
Waxing Gibbous, 99% of the Moon is Illuminated
Dec 16
Waxing Gibbous
Dec 17
Full
Dec 25
Last Quarter
Jan 1
New
Jan 8
First Quarter

Hourly Weather History & Observations

Time (EET) Temp. Windchill Dew Point Humidity Pressure Visibility Wind Dir Wind Speed Gust Speed Precip Events Conditions
12:20 AM 39.2 °F 33.6 °F 37.4 °F 93% 30.42 in - North 8.1 mph - N/A   Mist
12:50 AM 39.2 °F 35.0 °F 37.4 °F 93% 30.42 in 2.2 mi North 5.8 mph - N/A   Mist
1:20 AM 41.0 °F 37.1 °F 39.2 °F 93% 30.42 in 2.2 mi Variable 5.8 mph - N/A   Mist
1:50 AM 39.2 °F 33.6 °F 37.4 °F 93% 30.42 in 2.5 mi North 8.1 mph - N/A   Partly Cloudy
2:00 AM 38 °F - 37 °F 94% 30.45 in 2 mi North 8.1 mph - -   Mist
2:20 AM 41.0 °F 39.0 °F 39.2 °F 93% 30.42 in 2.5 mi NE 3.5 mph - N/A   Partly Cloudy
2:50 AM 39.2 °F 37.0 °F 37.4 °F 93% 30.42 in 2.2 mi North 3.5 mph - N/A   Partly Cloudy
3:20 AM 39.2 °F - 39.2 °F 100% 30.45 in 2.2 mi Variable 2.3 mph - N/A   Partly Cloudy
3:50 AM 39.2 °F - 37.4 °F 93% 30.45 in 2.2 mi Variable 2.3 mph - N/A   Partly Cloudy
4:20 AM 39.2 °F - 39.2 °F 100% 30.45 in - Calm Calm - N/A   Partly Cloudy
4:50 AM 39.2 °F - 37.4 °F 93% 30.45 in - Variable 2.3 mph - N/A   Scattered Clouds
5:00 AM 39 °F - 38 °F 94% 30.45 in 2 mi NNW 2.3 mph - -   Mist
5:20 AM 41.0 °F - 39.2 °F 93% 30.45 in 2.8 mi WNW 2.3 mph - N/A   Scattered Clouds
5:50 AM 41.0 °F - 39.2 °F 93% 30.45 in 2.5 mi Calm Calm - N/A   Mostly Cloudy
6:20 AM 41.0 °F 39.0 °F 41.0 °F 100% 30.45 in 3.7 mi WNW 3.5 mph - N/A   Mostly Cloudy
6:50 AM 44.6 °F - 41.0 °F 87% 30.45 in 3.7 mi WNW 2.3 mph - N/A   Mostly Cloudy
7:20 AM 44.6 °F - 39.2 °F 81% 30.45 in 3.7 mi Variable 1.2 mph - N/A   Mostly Cloudy
7:50 AM 44.6 °F - 39.2 °F 81% 30.45 in 3.7 mi Variable 2.3 mph - N/A   Mostly Cloudy
8:00 AM 44 °F - 39 °F 78% 30.47 in 4 mi WNW 2.3 mph - -   Mist
8:20 AM 44.6 °F 41.4 °F 41.0 °F 87% 30.45 in 3.7 mi NNW 5.8 mph - N/A   Mostly Cloudy
8:44 AM 46.4 °F 44.3 °F 41.0 °F 81% 30.48 in - Variable 4.6 mph - N/A   Light Drizzle
8:50 AM 46.4 °F 45.2 °F 41.0 °F 81% 30.48 in - Variable 3.5 mph - N/A   Light Drizzle
9:20 AM 46.4 °F 44.3 °F 41.0 °F 81% 30.48 in - Variable 4.6 mph - N/A Rain Light Rain
9:50 AM 44.6 °F 40.7 °F 42.8 °F 93% 30.48 in - NNE 6.9 mph - N/A Rain Light Rain
10:20 AM 44.6 °F 39.2 °F 42.8 °F 93% 30.48 in - North 10.4 mph - N/A Rain Light Rain
10:50 AM 42.8 °F 35.4 °F 41.0 °F 93% 30.48 in 2.2 mi North 15.0 mph - N/A Rain Light Rain
11:00 AM 43 °F - 41 °F 91% 30.51 in 2 mi North 15.0 mph - - Rain Light Rain
11:20 AM 42.8 °F 35.4 °F 41.0 °F 93% 30.48 in 2.2 mi North 15.0 mph - N/A Rain Light Rain
11:50 AM 42.8 °F 35.1 °F 41.0 °F 93% 30.48 in - North 16.1 mph - N/A Rain Light Rain
12:20 PM 42.8 °F 34.5 °F 41.0 °F 93% 30.48 in - North 18.4 mph - N/A Rain Light Rain
12:50 PM 42.8 °F 34.3 °F 39.2 °F 87% 30.48 in - North 19.6 mph - N/A Rain Light Rain
1:20 PM 42.8 °F 33.8 °F 39.2 °F 87% 30.45 in - North 21.9 mph - N/A Rain Light Rain
1:50 PM 42.8 °F 34.3 °F 39.2 °F 87% 30.48 in 2.5 mi North 19.6 mph - N/A Rain Light Rain
2:00 PM 42 °F - 40 °F 88% 30.49 in 2 mi North 19.6 mph - - Rain Light Rain
2:20 PM 42.8 °F 34.0 °F 39.2 °F 87% 30.48 in 2.5 mi North 20.7 mph - N/A Rain Light Rain
2:50 PM 42.8 °F 34.5 °F 39.2 °F 87% 30.48 in 2.5 mi North 18.4 mph - N/A Rain Light Rain
3:20 PM 42.8 °F 34.8 °F 39.2 °F 87% 30.48 in 2.2 mi North 17.3 mph - N/A   Mostly Cloudy
3:50 PM 41.0 °F 32.2 °F 39.2 °F 93% 30.48 in - North 18.4 mph - N/A   Mostly Cloudy
4:20 PM 42.8 °F 34.3 °F 39.2 °F 87% 30.48 in - North 19.6 mph - N/A   Mostly Cloudy
4:50 PM 42.8 °F 34.5 °F 39.2 °F 87% 30.48 in 2.5 mi North 18.4 mph - N/A   Mostly Cloudy
5:00 PM 42 °F - 39 °F 86% 30.51 in 2 mi North 18.4 mph - -   Mist
5:20 PM 42.8 °F 34.5 °F 39.2 °F 87% 30.48 in 2.2 mi North 18.4 mph - N/A Rain Light Rain
5:50 PM 42.8 °F 34.5 °F 39.2 °F 87% 30.51 in - North 18.4 mph - N/A Rain Light Rain
6:20 PM 42.8 °F 35.4 °F 41.0 °F 93% 30.51 in 2.5 mi NNW 15.0 mph - N/A Rain Light Rain
6:50 PM 42.8 °F 35.4 °F 41.0 °F 93% 30.51 in 2.2 mi North 15.0 mph - N/A Rain Light Rain
7:20 PM 42.8 °F 34.5 °F 41.0 °F 93% 30.48 in 2.2 mi NNW 18.4 mph - N/A Rain Light Rain
7:50 PM 42.8 °F 34.8 °F 41.0 °F 93% 30.48 in 2.2 mi NNW 17.3 mph - N/A Rain Light Rain
8:00 PM 43 °F - 41 °F 88% 30.51 in 2 mi NNW 17.3 mph - - Rain Light Rain
8:20 PM 42.8 °F 34.8 °F 41.0 °F 93% 30.48 in 2.5 mi North 17.3 mph - N/A Rain Light Rain
8:50 PM 44.6 °F 38.1 °F 41.0 °F 87% 30.51 in 2.5 mi North 13.8 mph - N/A Rain Light Rain
9:20 PM 46.4 °F 42.9 °F 42.8 °F 87% 30.51 in 2.5 mi North 6.9 mph - N/A Rain Light Rain
9:50 PM 44.6 °F 38.8 °F 42.8 °F 93% 30.51 in 2.5 mi North 11.5 mph - N/A Rain Light Rain
10:20 PM 44.6 °F 39.2 °F 42.8 °F 93% 30.51 in 2.5 mi North 10.4 mph - N/A Rain Light Rain
10:50 PM 44.6 °F 39.7 °F 42.8 °F 93% 30.51 in 2.5 mi NNW 9.2 mph - N/A Rain Light Rain
11:00 PM 44 °F - 43 °F 93% 30.53 in 2 mi NNW 9.2 mph - - Rain Light Rain
11:20 PM 44.6 °F 39.7 °F 42.8 °F 93% 30.51 in 2.5 mi NNE 9.2 mph - N/A Rain Light Rain
11:50 PM 44.6 °F 39.7 °F 41.0 °F 87% 30.51 in 2.5 mi NE 9.2 mph - N/A Rain Light Rain